Change the Weather History Date:

Wednesday, December 5, 2012

  Actual Average Record
Temperature  
Mean Temperature 46 °F -  
Max Temperature 59 °F 40 °F 66 °F (1989)
Min Temperature 32 °F 21 °F -7 °F (2005)
Degree Days  
Heating Degree Days 20    
Moisture  
Dew Point 20 °F    
Average Humidity 40    
Maximum Humidity 60    
Minimum Humidity 22    
Precipitation  
Precipitation 0.00 in - - ()
Sea Level Pressure  
Sea Level Pressure 30.05 in    
Wind  
Wind Speed 11 mph (South)    
Max Wind Speed 30 mph    
Max Gust Speed 37 mph    
Visibility 10 miles    
Events      
Averages and records for this station are not official NWS values.
T = Trace of Precipitation, MM = Missing Value Source: NWS Daily Summary

Daily Weather History Graph

Daily Weather History Graph

Search for Another Location

Airport or City:

Trip Planner

Search our weather history database for the weather conditions in past years. The results will help you decide how hot, cold, wet, or windy it might be!

Date:

Astronomy

Dec. 05, 2012 Rise Set
Actual Time 7:40 AM CST 5:02 PM CST
Civil Twilight 7:09 AM CST 5:33 PM CST
Nautical Twilight 6:35 AM CST 6:07 PM CST
Astronomical Twilight 6:01 AM CST 6:40 PM CST
Moon 11:55 PM CST (12/5) 12:02 PM CST (12/5)
Length of Visible Light 10h 23m
Length of Day
9h 22m
Waning Gibbous, 59% of the Moon is Illuminated
Dec 5
Waning Gibbous
Dec 6
Last Quarter
Dec 13
New
Dec 19
First Quarter
Dec 28
Full

Hourly Weather History & Observations

Time (CST) Temp. Windchill Dew Point Humidity Pressure Visibility Wind Dir Wind Speed Gust Speed Precip Events Conditions
12:15 AM 33.8 °F 27.7 °F 17.6 °F 52% 30.26 in 10.0 mi South 6.9 mph - N/A   Clear
12:35 AM 32.0 °F 25.6 °F 17.6 °F 55% 30.26 in 10.0 mi South 6.9 mph - N/A   Clear
12:55 AM 32.0 °F 25.6 °F 17.6 °F 55% 30.26 in 10.0 mi South 6.9 mph - N/A   Clear
1:15 AM 33.8 °F 27.7 °F 17.6 °F 52% 30.25 in 10.0 mi South 6.9 mph - N/A   Clear
1:35 AM 33.8 °F 28.6 °F 19.4 °F 56% 30.25 in 10.0 mi South 5.8 mph - N/A   Clear
1:55 AM 33.8 °F 28.6 °F 19.4 °F 56% 30.25 in 10.0 mi South 5.8 mph - N/A   Clear
2:15 AM 33.8 °F 27.7 °F 19.4 °F 56% 30.25 in 10.0 mi South 6.9 mph - N/A   Clear
2:35 AM 32.0 °F 24.8 °F 19.4 °F 60% 30.24 in 10.0 mi South 8.1 mph - N/A   Clear
2:55 AM 32.0 °F 24.8 °F 19.4 °F 60% 30.25 in 10.0 mi South 8.1 mph - N/A   Clear
3:15 AM 32.0 °F 25.6 °F 19.4 °F 60% 30.25 in 10.0 mi South 6.9 mph - N/A   Clear
3:35 AM 32.0 °F - 19.4 °F 60% 30.24 in 10.0 mi Calm Calm - N/A   Clear
3:55 AM 32.0 °F 25.6 °F 19.4 °F 60% 30.24 in 10.0 mi South 6.9 mph - N/A   Clear
4:15 AM 32.0 °F - 19.4 °F 60% 30.23 in 10.0 mi Calm Calm - N/A   Clear
4:35 AM 32.0 °F - 19.4 °F 60% 30.22 in 10.0 mi Calm Calm - N/A   Clear
4:55 AM 32.0 °F - 19.4 °F 60% 30.21 in 10.0 mi Calm Calm - N/A   Clear
5:15 AM 32.0 °F - 19.4 °F 60% 30.21 in 10.0 mi Calm Calm - N/A   Clear
5:35 AM 32.0 °F - 19.4 °F 60% 30.20 in 10.0 mi Calm Calm - N/A   Clear
5:55 AM 32.0 °F 24.8 °F 19.4 °F 60% 30.20 in 10.0 mi South 8.1 mph - N/A   Clear
6:15 AM 32.0 °F 25.6 °F 19.4 °F 60% 30.19 in 10.0 mi SSE 6.9 mph - N/A   Clear
6:35 AM 32.0 °F 28.7 °F 19.4 °F 60% 30.18 in 10.0 mi SSE 3.5 mph - N/A   Clear
6:55 AM 32.0 °F 24.2 °F 19.4 °F 60% 30.18 in 10.0 mi SSE 9.2 mph - N/A   Clear
8:55 AM 35.6 °F 28.0 °F 23.0 °F 60% 30.16 in 10.0 mi South 10.4 mph - N/A   Clear
9:15 AM 37.4 °F 29.3 °F 23.0 °F 56% 30.16 in 10.0 mi South 12.7 mph - N/A   Clear
9:35 AM 39.2 °F 31.2 °F 21.2 °F 49% 30.16 in 10.0 mi South 13.8 mph - N/A   Clear
9:55 AM 41.0 °F 33.5 °F 21.2 °F 45% 30.16 in 10.0 mi SSW 13.8 mph 18.4 mph N/A   Clear
10:15 AM 44.6 °F 37.2 °F 21.2 °F 39% 30.15 in 10.0 mi SSW 17.3 mph 23.0 mph N/A   Clear
10:35 AM 46.4 °F 38.7 °F 21.2 °F 37% 30.15 in 10.0 mi SSW 20.7 mph 28.8 mph N/A   Clear
10:55 AM 46.4 °F 40.1 °F 23.0 °F 40% 30.13 in 10.0 mi South 15.0 mph 20.7 mph N/A   Clear
11:15 AM 48.2 °F - 23.0 °F 37% 30.12 in 10.0 mi South 17.3 mph 26.5 mph N/A   Clear
11:35 AM 50.0 °F - 21.2 °F 32% 30.10 in 10.0 mi South 16.1 mph 21.9 mph N/A   Clear
11:55 AM 50.0 °F - 21.2 °F 32% 30.08 in 10.0 mi South 18.4 mph 25.3 mph N/A   Clear
12:15 PM 51.8 °F - 23.0 °F 33% 30.06 in 10.0 mi SSW 19.6 mph 25.3 mph N/A   Clear
12:35 PM 53.6 °F - 21.2 °F 28% 30.04 in 10.0 mi South 25.3 mph 32.2 mph N/A   Clear
12:55 PM 55.4 °F - 21.2 °F 26% 30.03 in 10.0 mi SSW 21.9 mph 29.9 mph N/A   Clear
1:15 PM 55.4 °F - 21.2 °F 26% 30.02 in 10.0 mi South 23.0 mph 29.9 mph N/A   Clear
1:35 PM 57.2 °F - 19.4 °F 23% 30.00 in 10.0 mi SSW 25.3 mph 33.4 mph N/A   Clear
1:55 PM 57.2 °F - 19.4 °F 23% 29.98 in 10.0 mi SSW 24.2 mph 32.2 mph N/A   Clear
2:15 PM 57.2 °F - 19.4 °F 23% 29.96 in 10.0 mi South 25.3 mph 32.2 mph N/A   Clear
2:35 PM 59.0 °F - 21.2 °F 23% 29.95 in 10.0 mi South 26.5 mph 32.2 mph N/A   Clear
2:55 PM 57.2 °F - 19.4 °F 23% 29.93 in 10.0 mi SSW 29.9 mph 36.8 mph N/A   Clear
3:15 PM 59.0 °F - 21.2 °F 23% 29.93 in 10.0 mi SSW 28.8 mph 35.7 mph N/A   Clear
3:35 PM 59.0 °F - 19.4 °F 22% 29.92 in 10.0 mi South 25.3 mph 33.4 mph N/A   Clear
3:55 PM 59.0 °F - 21.2 °F 23% 29.92 in 10.0 mi South 21.9 mph 28.8 mph N/A   Clear
4:15 PM 57.2 °F - 19.4 °F 23% 29.91 in 10.0 mi South 19.6 mph 27.6 mph N/A   Clear
4:35 PM 57.2 °F - 21.2 °F 25% 29.92 in 10.0 mi South 17.3 mph 25.3 mph N/A   Clear
4:55 PM 55.4 °F - 21.2 °F 26% 29.91 in 10.0 mi South 17.3 mph 21.9 mph N/A   Clear
5:15 PM 53.6 °F - 21.2 °F 28% 29.91 in 10.0 mi South 19.6 mph - N/A   Clear
5:35 PM 53.6 °F - 21.2 °F 28% 29.90 in 10.0 mi South 18.4 mph 24.2 mph N/A   Clear
6:15 PM 50.0 °F - 21.2 °F 32% 29.90 in 10.0 mi South 17.3 mph 24.2 mph N/A   Unknown
6:35 PM 50.0 °F - 21.2 °F 32% 29.90 in 10.0 mi South 16.1 mph 21.9 mph N/A   Clear
6:55 PM 50.0 °F - 19.4 °F 30% 29.89 in 10.0 mi South 17.3 mph - N/A   Clear
7:15 PM 48.2 °F - 19.4 °F 32% 29.89 in 10.0 mi South 16.1 mph 21.9 mph N/A   Clear
7:35 PM 48.2 °F - 19.4 °F 32% 29.89 in 10.0 mi South 18.4 mph - N/A   Clear
7:55 PM 48.2 °F - 19.4 °F 32% 29.89 in 10.0 mi South 15.0 mph 23.0 mph N/A   Clear
8:15 PM 48.2 °F - 19.4 °F 32% 29.89 in 10.0 mi South 16.1 mph - N/A   Clear
8:35 PM 48.2 °F - 19.4 °F 32% 29.89 in 10.0 mi South 17.3 mph 25.3 mph N/A   Clear
9:15 PM 48.2 °F - 19.4 °F 32% 29.87 in 10.0 mi South 20.7 mph 27.6 mph N/A   Clear
9:35 PM 50.0 °F - 19.4 °F 30% 29.87 in 10.0 mi South 20.7 mph - N/A   Clear
9:55 PM 50.0 °F - 17.6 °F 28% 29.87 in 10.0 mi South 19.6 mph 25.3 mph N/A   Clear
10:15 PM 50.0 °F - 17.6 °F 28% 29.88 in 10.0 mi SSW 17.3 mph 25.3 mph N/A   Scattered Clouds
10:35 PM 48.2 °F - 17.6 °F 30% 29.89 in 10.0 mi SSW 16.1 mph 19.6 mph N/A   Mostly Cloudy
10:55 PM 50.0 °F - 17.6 °F 28% 29.89 in 10.0 mi SSW 16.1 mph 21.9 mph N/A   Overcast
11:15 PM 48.2 °F - 17.6 °F 30% 29.88 in 10.0 mi SSW 19.6 mph 24.2 mph N/A   Overcast
11:35 PM 48.2 °F - 17.6 °F 30% 29.87 in 10.0 mi South 15.0 mph 25.3 mph N/A   Mostly Cloudy
11:55 PM 48.2 °F - 17.6 °F 30% 29.85 in 10.0 mi South 21.9 mph 25.3 mph N/A   Mostly Cloudy